Location: Antioch Baptist Church
(32.6696°N, 85.7327°W)
Time: 11:22:05
(UTC+00:00)

Cosmos 2346 Rocket - Pass Details

Date: 14 July 2020
Orbit: 936 x 981 km, 82.9° (Epoch: 08 August)

Event Time Altitude Azimuth Distance (km) Brightness Sun altitude
Rises 07:47:12 0° 351° (N) 3,641 8.2 -28.8°
Reaches altitude 10° 07:49:43 10° 350° (N) 2,685 7.4 -28.5°
Maximum altitude 07:55:49 74° 267° (W) 981 4.3 -27.8°
Enters shadow 07:55:54 74° 259° (W) 982 4.3 -27.8°
